STARLINK-1220 (45211 NORAD) Tracking and Keplerian Element Data

This shows tracking and keplerian element data for the satellite.

Feedback or suggestion? Click here.




ElementValue
Catalog45211
NameSTARLINK-1220
Epoch Orbit370
Epoch Day69.91667824
Epoch Year2020
RAAN162.4808
Inclination53.0024
Eccentricity0.0027451
Argument of Perigee118.7601
Mean Anonmoly331.9927
Mean Motion15.75746283
Decay Rate0.00723224
L11 45211U 20012AK 20069.91667824 .00723224 00000-0 41594-2 0 9993
L22 45211 53.0024 162.4808 0027451 118.7601 331.9927 15.75746283 3703

Live tracking and technical data element details for STARLINK-1220 (NORAD 45211). STARLINK-1220 can be tracked NOW for your location showing map with azimuth and elevation plus other details from your city location.

Track the satellite on the map from your city or location and see movement details for azimuth, elevation, latitude, longitude, range, height, and movement on the map or in text.







IsCatalogInMostPopularTable: catalog: 45211, numindb: 29
Update: records affected: 1



GetName: 45211 STARLINK-1220

Hit Count: updated at: Thu, 09 Jul 2020 02:37:29 GMT